Flag for Mexico

Past Weather in Saltillo, Coahuila de Zaragoza, Mexico — Yesterday and Last 2 Weeks

Now
73 °F

Sunny.


Feels Like: 77 °F
Forecast: 75 / 51 °F
Wind: 6 mph from Northeast

Location: Saltillo Airport
Current Time: Oct 1, 2020 at 2:49:08 pm
Latest Report: Oct 1, 2020 at 1:40 pm
Visibility: 10 mi
Pressure30.28 "Hg(25.17 "Hg at 1603m altitude)
Humidity: 53%
Dew Point: 55 °F
Location of SaltilloLocation

Past Weather in Saltillo — Graph

°F

Saltillo Temperature Yesterday

Maximum temperature yesterday: 79 °F (at 2:40 pm)
Minimum temperature yesterday: 52 °F (at 5:40 am)
Average temperature yesterday: 67 °F

High & Low Weather Summary for the Past Weeks

 TemperatureHumidityPressure
High91 °F (Sep 27, 4:40 pm)88% (Sep 18, 5:40 am)30.40 "Hg (Sep 18, 5:40 am)
Low52 °F (Sep 30, 5:40 am)29% (Sep 27, 6:40 pm)30.00 "Hg (Sep 27, 5:40 pm)
Average69 °F55%30.20 "Hg
* Reported Sep 16 1:40 pm — Oct 1 1:40 pm, Saltillo. Weather by CustomWeather, © 2020

Note: Actual official high and low records may vary slightly from our data, if they occured in-between our weather recording intervals... More about our weather records

Saltillo Weather History for the Previous 24 Hours

Scroll right to see more
 ConditionsComfort  
Time TempWeatherWind HumidityBarometerVisibility
1:40 pm
Thu, Oct 1
73 °FSunny.6 mph53%30.28 "Hg10 mi
12:40 pm72 °FSunny.No wind57%30.26 "Hg10 mi
11:40 am70 °FSunny.No wind57%30.26 "Hg10 mi
10:40 am66 °FSunny.No wind56%30.27 "Hg10 mi
9:40 am63 °FSunny.No wind59%30.27 "Hg10 mi
8:40 am55 °FSunny.No wind63%30.26 "Hg10 mi
7:40 am54 °FSunny.No wind63%30.25 "Hg10 mi
6:40 am54 °FClear.No wind63%30.24 "Hg10 mi
5:40 am54 °FClear.No wind63%30.23 "Hg10 mi
1:40 am57 °FClear.No wind59%30.25 "Hg10 mi
12:40 am61 °FClear.No wind55%30.27 "Hg10 mi
11:40 pm
Wed, Sep 30
61 °FClear.No wind55%30.27 "Hg10 mi
10:40 pm61 °FClear.No wind55%30.27 "Hg10 mi
9:40 pm63 °FClear.No wind56%30.27 "Hg10 mi
8:40 pm64 °FClear.6 mph52%30.26 "Hg10 mi
7:40 pm66 °FClear.9 mph52%30.24 "Hg10 mi
6:40 pm72 °FSunny.9 mph44%30.22 "Hg10 mi
5:40 pm75 °FSunny.12 mph41%30.22 "Hg10 mi
4:40 pm79 °FSunny.14 mph37%30.21 "Hg10 mi
3:40 pm79 °FSunny.9 mph37%30.21 "Hg10 mi
2:40 pm79 °FSunny.12 mph37%30.24 "Hg10 mi
Weather by CustomWeather, © 2020

See weather overview